TimeEDT,TemperatureF,Dew PointF,Humidity,Sea Level PressureIn,VisibilityMPH,Wind Direction,Wind SpeedMPH,Gust SpeedMPH,PrecipitationIn,Events,Conditions,WindDirDegrees,DateUTC
12:52 AM,66.9,63.0,87,29.91,10.0,South,4.6,-,N/A,,Clear,190,2013-08-07 04:52:00
1:52 AM,66.9,63.0,87,29.91,10.0,South,4.6,-,N/A,,Clear,180,2013-08-07 05:52:00
2:52 AM,66.0,64.0,93,29.90,7.0,South,4.6,-,N/A,,Partly Cloudy,190,2013-08-07 06:52:00
3:26 AM,66.2,64.4,94,29.91,7.0,Calm,Calm,-,N/A,,Mostly Cloudy,0,2013-08-07 07:26:00
3:39 AM,66.2,64.4,94,29.90,7.0,Calm,Calm,-,N/A,,Mostly Cloudy,0,2013-08-07 07:39:00
3:52 AM,66.0,63.0,90,29.90,7.0,Calm,Calm,-,N/A,,Partly Cloudy,0,2013-08-07 07:52:00
4:27 AM,64.4,62.6,94,29.91,6.0,Calm,Calm,-,N/A,,Mostly Cloudy,0,2013-08-07 08:27:00
4:45 AM,64.4,62.6,94,29.90,5.0,South,5.8,-,N/A,,Mostly Cloudy,180,2013-08-07 08:45:00
4:52 AM,64.9,63.0,93,29.88,5.0,South,4.6,-,N/A,,Scattered Clouds,170,2013-08-07 08:52:00
5:52 AM,66.0,64.0,93,29.87,5.0,South,6.9,-,N/A,,Clear,190,2013-08-07 09:52:00
6:52 AM,64.9,64.0,97,29.87,3.0,South,4.6,-,N/A,,Clear,190,2013-08-07 10:52:00
7:41 AM,66.2,64.4,94,29.88,3.0,South,3.5,-,N/A,,Mostly Cloudy,190,2013-08-07 11:41:00
7:52 AM,66.9,64.9,93,29.88,3.0,SSW,3.5,-,N/A,,Overcast,200,2013-08-07 11:52:00
8:43 AM,71.6,66.2,83,29.90,3.0,SW,5.8,-,N/A,,Overcast,230,2013-08-07 12:43:00
8:52 AM,71.1,66.9,87,29.90,3.0,SW,6.9,-,N/A,,Overcast,230,2013-08-07 12:52:00
9:27 AM,73.4,68.0,83,29.90,3.0,WSW,6.9,-,N/A,,Haze,240,2013-08-07 13:27:00
9:34 AM,73.4,69.8,88,29.91,3.0,WSW,6.9,-,N/A,,Scattered Clouds,240,2013-08-07 13:34:00
9:52 AM,73.0,69.1,87,29.90,5.0,WSW,5.8,-,N/A,,Mostly Cloudy,240,2013-08-07 13:52:00
10:24 AM,73.4,69.8,88,29.89,5.0,West,3.5,-,N/A,,Mostly Cloudy,270,2013-08-07 14:24:00
10:52 AM,73.0,69.1,87,29.91,5.0,Calm,Calm,-,N/A,,Mostly Cloudy,0,2013-08-07 14:52:00
11:05 AM,73.4,69.8,88,29.91,4.0,North,3.5,-,0.00,Rain-Thunderstorm,Light Rain,360,2013-08-07 15:05:00
11:19 AM,71.6,69.8,94,29.91,1.8,Calm,Calm,-,0.01,Rain-Thunderstorm,Light Thunderstorms and Rain,0,2013-08-07 15:19:00
11:24 AM,71.6,69.8,94,29.93,0.8,West,8.1,-,0.04,Rain-Thunderstorm,Thunderstorms and Rain,270,2013-08-07 15:24:00
11:36 AM,66.2,66.2,100,29.93,0.2,North,24.2,29.9,0.72,Fog-Rain-Thunderstorm,Heavy Thunderstorms and Rain,350,2013-08-07 15:36:00
11:45 AM,66.2,64.4,94,29.91,0.2,North,24.2,34.5,1.31,Fog-Rain-Thunderstorm,Heavy Thunderstorms and Rain,360,2013-08-07 15:45:00
11:52 AM,66.0,64.0,93,29.91,1.2,North,10.4,34.5,1.36,Rain-Thunderstorm,Light Thunderstorms and Rain,350,2013-08-07 15:52:00
11:54 AM,66.2,64.4,94,29.93,3.0,North,10.4,34.5,0.01,Rain-Thunderstorm,Light Thunderstorms and Rain,360,2013-08-07 15:54:00
12:03 PM,66.2,64.4,94,29.94,6.0,Calm,Calm,-,0.01,Rain-Thunderstorm,Light Thunderstorms and Rain,0,2013-08-07 16:03:00
12:25 PM,66.2,64.4,94,29.93,2.5,Calm,Calm,-,0.06,Rain-Thunderstorm,Light Thunderstorms and Rain,0,2013-08-07 16:25:00
12:41 PM,66.2,64.4,94,29.92,2.5,SSE,3.5,-,0.06,Rain,Light Rain,150,2013-08-07 16:41:00
12:52 PM,68.0,66.0,93,29.90,8.0,SE,3.5,-,0.06,Rain,Light Rain,140,2013-08-07 16:52:00
1:52 PM,75.0,68.0,79,29.88,10.0,Variable,4.6,-,0.00,,Clear,0,2013-08-07 17:52:00
2:52 PM,79.0,66.9,66,29.88,10.0,South,4.6,-,N/A,,Clear,170,2013-08-07 18:52:00
3:52 PM,79.0,68.0,69,29.87,10.0,South,4.6,-,N/A,,Mostly Cloudy,170,2013-08-07 19:52:00
4:52 PM,79.0,70.0,74,29.86,10.0,SSE,5.8,-,N/A,,Mostly Cloudy,160,2013-08-07 20:52:00
5:52 PM,79.0,70.0,74,29.86,10.0,SSW,5.8,-,N/A,,Clear,210,2013-08-07 21:52:00
6:52 PM,79.0,71.1,77,29.85,10.0,South,4.6,-,N/A,,Clear,190,2013-08-07 22:52:00
7:52 PM,77.0,72.0,84,29.86,10.0,SSE,3.5,-,N/A,,Clear,160,2013-08-07 23:52:00
8:52 PM,75.9,72.0,87,29.86,8.0,South,3.5,-,N/A,,Clear,190,2013-08-08 00:52:00
9:52 PM,72.0,71.1,97,29.88,6.0,South,4.6,-,N/A,,Clear,190,2013-08-08 01:52:00
10:52 PM,72.0,70.0,93,29.89,6.0,SSW,3.5,-,N/A,,Clear,210,2013-08-08 02:52:00
11:52 PM,70.0,69.1,97,29.90,4.0,Calm,Calm,-,N/A,,Scattered Clouds,0,2013-08-08 03:52:00